Home   Weather   Peshawar   Past weeks

Flag for Pakistan Past Weather in Peshawar, Pakistan — Yesterday and Last 2 Weeks

Now
59 °F

Haze.


Feels Like: 59 °F
Forecast: 47 / 71 °F
Wind: No wind

Location: Peshawar Airport

Current Time: Dec 9, 2016 at 8:47:35 pm

Latest Report: Dec 9, 2016 at 8:00 pm


Visibility: 0 mi

Pressure: 29.95 "Hg

Humidity: 55%

Dew Point: 43 °F

Location of PeshawarLocation

Past Weather in Peshawar — Graph

°F

Peshawar Temperature Yesterday

Maximum temperature yesterday: 72 °F (at 2:00 pm)
Minimum temperature yesterday: 52 °F (at 5:00 am)
Average temperature yesterday: 60 °F

High & Low Weather Summary for the Past Weeks

 TemperatureHumidityPressure
High81 °F (Nov 27, 2:00 pm)77% (Nov 26, 6:00 am)30.18 "Hg (Nov 26, 6:00 am)
Low48 °F (Nov 28, 6:00 am)24% (Nov 30, 2:00 pm)29.92 "Hg (Nov 28, 3:00 pm)
Average63 °F49%30.06 "Hg
* Reported Nov 24 7:00 pm — Dec 9 7:30 pm, Peshawar, Weather by CustomWeather, © 2016

Note: Actual official high and low records may vary slightly from our data, if they occured in-between our weather recording intervals... More about our weather records

Advertising

Peshawar Weather History for the Previous 24 Hours

Scroll right to see more
 ConditionsComfort  
Time TempWeatherWind HumidityBarometerVisibility
7:30 pm
Fri, Dec 9
59 °FPassing clouds.No wind48%29.92 "Hg1 mi
7:00 pm59 °FPassing clouds.No wind48%29.92 "Hg1 mi
6:30 pm59 °FPassing clouds.No wind45%29.92 "Hg1 mi
6:00 pm59 °FPassing clouds.No wind45%29.92 "Hg1 mi
5:00 pm63 °FScattered clouds.5 mph42%29.92 "Hg1 mi
4:00 pm66 °FScattered clouds.5 mph40%29.92 "Hg1 mi
3:00 pm66 °FScattered clouds.5 mph40%29.92 "Hg1 mi
2:30 pm66 °FHaze.No wind40%29.95 "Hg1 mi
2:00 pm66 °FHaze.No wind40%29.95 "Hg1 mi
1:30 pm64 °FHaze.5 mph40%29.95 "Hg1 mi
1:00 pm64 °FHaze.5 mph40%29.95 "Hg1 mi
12:30 pm63 °FHaze.5 mph42%29.98 "Hg1 mi
12:00 pm63 °FHaze.5 mph42%29.98 "Hg1 mi
11:30 am61 °FHaze.5 mph55%30.01 "Hg1 mi
11:00 am61 °FHaze.5 mph55%30.01 "Hg1 mi
10:30 am57 °FHaze.No wind59%30.04 "Hg1 mi
9:30 am54 °FScattered clouds.No wind63%30.01 "Hg1 mi
9:00 am54 °FScattered clouds.No wind63%30.01 "Hg1 mi
8:30 am52 °FScattered clouds.5 mph62%30.01 "Hg1 mi
8:00 am52 °FScattered clouds.5 mph62%30.01 "Hg1 mi
7:00 am50 °FPassing clouds.No wind67%30.01 "Hg1 mi
6:00 am50 °FPassing clouds.No wind67%29.98 "Hg1 mi
4:59 am50 °FPassing clouds.No wind67%29.98 "Hg1 mi
3:00 am52 °FPassing clouds.5 mph72%30.01 "Hg1 mi
2:00 am52 °FPassing clouds.5 mph72%30.01 "Hg1 mi
1:00 am52 °FPassing clouds.5 mph72%30.01 "Hg1 mi
12:00 am54 °FPassing clouds.5 mph67%30.01 "Hg1 mi
11:00 pm
Thu, Dec 8
55 °FPassing clouds.5 mph63%30.01 "Hg1 mi
10:00 pm57 °FPassing clouds.No wind59%30.01 "Hg1 mi
9:00 pm59 °FPassing clouds.No wind55%30.01 "Hg1 mi
8:00 pm61 °FPassing clouds.No wind55%30.01 "Hg1 mi
Weather by CustomWeather, © 2016

See weather overviewHow to use our weather pages